Location: Unspecified
(0.0000°N, 0.0000°E)
Time: 12:11:36
(UTC+00:00)

Tiros 1 - Visible Passes

Search period start: 29 May 2015 00:00
Search period end: 08 June 2015 00:00
Orbit: 631 x 666 km, 48.4° (Epoch: 29 May)

Date Brightness Start Highest point End Pass type
(mag) Time Alt. Az. Time Alt. Az. Time Alt. Az.
29 May 9.4 20:25:59 10° NW 20:27:36 21° NNW 20:27:36 21° NNW visible
30 May 8.6 19:11:35 10° N 19:15:05 21° NE 19:15:46 21° ENE visible
30 May 10.2 20:53:07 10° WNW 20:53:30 12° WNW 20:53:30 12° WNW visible
31 May 7.0 19:37:00 10° NNW 19:41:43 71° NE 19:41:43 71° NE visible
01 Jun 8.8 18:22:47 10° N 18:26:05 19° NE 18:29:32 10° E visible
01 Jun 8.6 20:04:00 10° WNW 20:07:44 32° WSW 20:07:44 32° WSW visible
02 Jun 7.2 18:48:02 10° NNW 18:52:44 64° NE 18:56:02 19° SE visible
03 Jun 8.4 19:14:54 10° WNW 19:19:17 36° SW 19:22:06 19° S visible
04 Jun 9.8 19:44:25 10° WSW 19:46:00 11° SW 19:47:18 10° SSW visible
05 Jun 8.3 18:25:48 10° WNW 18:30:17 40° SW 18:34:42 10° SSE visible
06 Jun 8.8 04:57:25 10° S 05:01:21 28° SE 05:05:23 10° ENE visible
06 Jun 9.7 18:54:49 10° WSW 18:56:59 13° SW 18:58:54 10° SSW visible
07 Jun 7.1 05:23:15 10° SW 05:27:55 84° NW 05:32:36 10° NE visible
